Time,TemperatureF,DewpointF,PressureIn,WindDirection,WindDirectionDegrees,WindSpeedMPH,WindSpeedGustMPH,Humidity,HourlyPrecipIn,Conditions,Clouds,dailyrainin,SoftwareType,DateUTC
2013-02-25 00:02:00,19.0,15.1,29.90,East,90,0.0,0.0,85,0.00,,,0.00,WUHU216HW,2013-02-25 06:02:00,
2013-02-25 00:07:00,18.6,14.8,29.91,East,90,0.0,0.0,85,0.00,,,0.00,WUHU216HW,2013-02-25 06:07:00,
2013-02-25 00:12:00,18.5,14.6,29.91,East,90,0.0,0.0,85,0.00,,,0.00,WUHU216HW,2013-02-25 06:12:00,
2013-02-25 00:17:00,18.5,14.6,29.91,East,90,0.0,0.0,85,0.00,,,0.00,WUHU216HW,2013-02-25 06:17:00,
2013-02-25 00:22:00,18.5,14.6,29.91,East,90,0.0,0.0,85,0.00,,,0.00,WUHU216HW,2013-02-25 06:22:00,
2013-02-25 00:27:00,18.5,14.6,29.91,East,90,0.0,0.0,85,0.00,,,0.00,WUHU216HW,2013-02-25 06:27:00,
2013-02-25 00:32:00,18.3,14.4,29.92,East,90,0.0,0.0,85,0.00,,,0.00,WUHU216HW,2013-02-25 06:32:00,
2013-02-25 00:37:00,18.1,14.2,29.92,East,90,0.0,0.0,85,0.00,,,0.00,WUHU216HW,2013-02-25 06:37:00,
2013-02-25 00:42:00,17.9,14.0,29.92,East,90,0.0,0.0,85,0.00,,,0.00,WUHU216HW,2013-02-25 06:42:00,
2013-02-25 00:47:00,17.7,13.9,29.92,East,90,0.0,0.0,85,0.00,,,0.00,WUHU216HW,2013-02-25 06:47:00,
2013-02-25 00:52:00,17.4,13.5,29.92,East,90,0.0,0.0,85,0.00,,,0.00,WUHU216HW,2013-02-25 06:52:00,
2013-02-25 00:57:00,17.4,13.5,29.92,East,90,0.0,0.0,85,0.00,,,0.00,WUHU216HW,2013-02-25 06:57:00,
2013-02-25 01:02:00,17.4,13.5,29.93,East,90,0.0,0.0,85,0.00,,,0.00,WUHU216HW,2013-02-25 07:02:00,
2013-02-25 01:07:00,17.4,13.5,29.92,East,90,0.0,0.0,85,0.00,,,0.00,WUHU216HW,2013-02-25 07:07:00,
2013-02-25 01:12:00,17.4,13.5,29.92,East,90,0.0,0.0,85,0.00,,,0.00,WUHU216HW,2013-02-25 07:12:00,
2013-02-25 01:17:00,17.4,13.5,29.92,East,90,0.0,0.0,85,0.00,,,0.00,WUHU216HW,2013-02-25 07:17:00,
2013-02-25 01:22:00,17.4,13.5,29.92,East,90,0.0,0.0,85,0.00,,,0.00,WUHU216HW,2013-02-25 07:22:00,
2013-02-25 01:27:00,17.4,13.5,29.93,East,90,0.0,0.0,85,0.00,,,0.00,WUHU216HW,2013-02-25 07:27:00,
2013-02-25 01:32:00,17.4,13.5,29.93,East,90,0.0,0.0,85,0.00,,,0.00,WUHU216HW,2013-02-25 07:32:00,
2013-02-25 01:37:00,17.4,13.5,29.92,East,90,0.0,0.0,85,0.00,,,0.00,WUHU216HW,2013-02-25 07:37:00,
2013-02-25 01:42:00,17.4,13.5,29.92,East,90,0.0,0.0,85,0.00,,,0.00,WUHU216HW,2013-02-25 07:42:00,
2013-02-25 01:47:00,17.4,13.8,29.92,East,90,0.0,0.0,86,0.00,,,0.00,WUHU216HW,2013-02-25 07:47:00,
2013-02-25 01:52:00,17.2,13.6,29.92,East,90,0.0,0.0,86,0.00,,,0.00,WUHU216HW,2013-02-25 07:52:00,
2013-02-25 01:57:00,17.2,13.6,29.92,East,90,0.0,0.0,86,0.00,,,0.00,WUHU216HW,2013-02-25 07:57:00,
2013-02-25 02:02:00,17.2,13.6,29.92,East,90,0.0,0.0,86,0.00,,,0.00,WUHU216HW,2013-02-25 08:02:00,
2013-02-25 02:07:00,17.2,13.6,29.92,East,90,0.0,0.0,86,0.00,,,0.00,WUHU216HW,2013-02-25 08:07:00,
2013-02-25 02:12:00,17.4,13.8,29.91,East,90,0.0,0.0,86,0.00,,,0.00,WUHU216HW,2013-02-25 08:12:00,
2013-02-25 02:17:00,17.4,13.8,29.91,East,90,0.0,0.0,86,0.00,,,0.00,WUHU216HW,2013-02-25 08:17:00,
2013-02-25 02:23:00,17.4,13.8,29.91,East,90,0.0,0.0,86,0.00,,,0.00,WUHU216HW,2013-02-25 08:23:00,
2013-02-25 02:28:00,17.4,13.8,29.91,East,90,0.0,0.0,86,0.00,,,0.00,WUHU216HW,2013-02-25 08:28:00,
2013-02-25 02:33:00,17.4,13.8,29.91,East,90,0.0,0.0,86,0.00,,,0.00,WUHU216HW,2013-02-25 08:33:00,
2013-02-25 02:38:00,17.4,13.8,29.91,East,90,0.0,0.0,86,0.00,,,0.00,WUHU216HW,2013-02-25 08:38:00,
2013-02-25 02:43:00,17.4,13.8,29.91,East,90,0.0,0.0,86,0.00,,,0.00,WUHU216HW,2013-02-25 08:43:00,
2013-02-25 02:48:00,17.2,13.6,29.91,East,90,0.0,0.0,86,0.00,,,0.00,WUHU216HW,2013-02-25 08:48:00,
2013-02-25 02:53:00,17.2,13.6,29.92,East,90,0.0,0.0,86,0.00,,,0.00,WUHU216HW,2013-02-25 08:53:00,
2013-02-25 02:58:00,16.8,13.2,29.92,East,90,0.0,0.0,86,0.00,,,0.00,WUHU216HW,2013-02-25 08:58:00,
2013-02-25 03:03:00,16.7,13.1,29.91,East,90,0.0,0.0,86,0.00,,,0.00,WUHU216HW,2013-02-25 09:03:00,
2013-02-25 03:08:00,16.8,13.2,29.91,East,90,0.0,0.0,86,0.00,,,0.00,WUHU216HW,2013-02-25 09:08:00,
2013-02-25 03:13:00,16.8,13.2,29.91,East,90,0.0,0.0,86,0.00,,,0.00,WUHU216HW,2013-02-25 09:13:00,
2013-02-25 03:18:00,16.8,13.2,29.91,East,90,0.0,0.0,86,0.00,,,0.00,WUHU216HW,2013-02-25 09:18:00,
2013-02-25 03:23:00,16.8,13.2,29.91,East,90,0.0,0.0,86,0.00,,,0.00,WUHU216HW,2013-02-25 09:23:00,
2013-02-25 03:28:00,16.8,13.2,29.91,East,90,0.0,0.0,86,0.00,,,0.00,WUHU216HW,2013-02-25 09:28:00,
2013-02-25 03:33:00,16.8,13.2,29.90,East,90,0.0,0.0,86,0.00,,,0.00,WUHU216HW,2013-02-25 09:33:00,
2013-02-25 03:38:00,17.2,13.6,29.90,East,90,0.0,0.0,86,0.00,,,0.00,WUHU216HW,2013-02-25 09:38:00,
2013-02-25 03:43:00,17.7,14.4,29.91,East,90,0.0,0.0,87,0.00,,,0.00,WUHU216HW,2013-02-25 09:43:00,
2013-02-25 03:48:00,17.9,14.6,29.90,East,90,0.0,0.0,87,0.00,,,0.00,WUHU216HW,2013-02-25 09:48:00,
2013-02-25 03:53:00,18.3,14.9,29.90,East,90,0.0,0.0,87,0.00,,,0.00,WUHU216HW,2013-02-25 09:53:00,
2013-02-25 03:58:00,18.8,15.7,29.90,East,90,0.0,0.0,87,0.00,,,0.00,WUHU216HW,2013-02-25 09:58:00,
2013-02-25 04:03:00,19.2,16.1,29.90,East,90,0.0,0.0,88,0.00,,,0.00,WUHU216HW,2013-02-25 10:03:00,
2013-02-25 04:08:00,19.5,16.5,29.91,East,90,0.0,0.0,88,0.00,,,0.00,WUHU216HW,2013-02-25 10:08:00,
2013-02-25 04:13:00,19.2,16.0,29.90,East,90,0.0,0.0,87,0.00,,,0.00,WUHU216HW,2013-02-25 10:13:00,
2013-02-25 04:18:00,19.0,15.7,29.90,East,90,0.0,0.0,87,0.00,,,0.00,WUHU216HW,2013-02-25 10:18:00,
2013-02-25 04:23:00,18.8,15.8,29.90,East,90,0.0,0.0,88,0.00,,,0.00,WUHU216HW,2013-02-25 10:23:00,
2013-02-25 04:28:00,19.0,15.9,29.90,East,90,0.0,0.0,88,0.00,,,0.00,WUHU216HW,2013-02-25 10:28:00,
2013-02-25 04:34:00,19.2,16.1,29.90,East,90,0.0,0.0,88,0.00,,,0.00,WUHU216HW,2013-02-25 10:34:00,
2013-02-25 04:39:00,19.5,16.5,29.91,East,90,0.0,0.0,88,0.00,,,0.00,WUHU216HW,2013-02-25 10:39:00,
2013-02-25 04:44:00,19.5,16.5,29.91,East,90,0.0,0.0,88,0.00,,,0.00,WUHU216HW,2013-02-25 10:44:00,
2013-02-25 04:49:00,19.9,16.8,29.91,East,90,0.0,0.0,88,0.00,,,0.00,WUHU216HW,2013-02-25 10:49:00,
2013-02-25 04:54:00,19.9,16.8,29.92,East,90,0.0,0.0,88,0.00,,,0.00,WUHU216HW,2013-02-25 10:54:00,
2013-02-25 04:59:00,20.1,17.0,29.92,East,90,0.0,0.0,88,0.00,,,0.00,WUHU216HW,2013-02-25 10:59:00,
2013-02-25 05:04:00,19.9,16.8,29.92,East,90,0.0,0.0,88,0.00,,,0.00,WUHU216HW,2013-02-25 11:04:00,
2013-02-25 05:09:00,19.9,16.8,29.92,East,90,0.0,0.0,88,0.00,,,0.00,WUHU216HW,2013-02-25 11:09:00,
2013-02-25 05:14:00,20.1,17.3,29.92,East,90,0.0,0.0,89,0.00,,,0.00,WUHU216HW,2013-02-25 11:14:00,
2013-02-25 05:19:00,20.4,17.6,29.92,East,90,0.0,0.0,89,0.00,,,0.00,WUHU216HW,2013-02-25 11:19:00,
2013-02-25 05:24:00,20.8,18.0,29.92,East,90,0.0,0.0,89,0.00,,,0.00,WUHU216HW,2013-02-25 11:24:00,
2013-02-25 05:29:00,20.8,18.0,29.92,East,90,0.0,0.0,89,0.00,,,0.00,WUHU216HW,2013-02-25 11:29:00,
2013-02-25 05:34:00,21.0,18.2,29.92,East,90,0.0,0.0,89,0.00,,,0.00,WUHU216HW,2013-02-25 11:34:00,
2013-02-25 05:39:00,21.2,18.4,29.92,East,90,0.0,0.0,89,0.00,,,0.00,WUHU216HW,2013-02-25 11:39:00,
2013-02-25 05:44:00,21.3,18.5,29.92,East,90,0.0,0.0,89,0.00,,,0.00,WUHU216HW,2013-02-25 11:44:00,
2013-02-25 05:49:00,21.3,18.5,29.92,East,90,0.0,0.0,89,0.00,,,0.00,WUHU216HW,2013-02-25 11:49:00,
2013-02-25 05:54:00,21.3,18.5,29.92,East,90,0.0,0.0,89,0.00,,,0.00,WUHU216HW,2013-02-25 11:54:00,
2013-02-25 05:59:00,21.3,18.5,29.92,East,90,0.0,0.0,89,0.00,,,0.00,WUHU216HW,2013-02-25 11:59:00,
2013-02-25 06:04:00,21.3,18.5,29.92,East,90,0.0,0.0,89,0.00,,,0.00,WUHU216HW,2013-02-25 12:04:00,
2013-02-25 06:09:00,21.3,18.5,29.92,East,90,0.0,0.0,89,0.00,,,0.00,WUHU216HW,2013-02-25 12:09:00,
2013-02-25 06:14:00,21.3,18.5,29.93,East,90,0.0,0.0,89,0.00,,,0.00,WUHU216HW,2013-02-25 12:14:00,
2013-02-25 06:19:00,21.3,18.5,29.92,East,90,0.0,0.0,89,0.00,,,0.00,WUHU216HW,2013-02-25 12:19:00,
2013-02-25 06:24:00,21.3,18.5,29.92,East,90,0.0,0.0,89,0.00,,,0.00,WUHU216HW,2013-02-25 12:24:00,
2013-02-25 06:29:00,21.3,18.5,29.92,East,90,0.0,0.0,89,0.00,,,0.00,WUHU216HW,2013-02-25 12:29:00,
2013-02-25 06:34:00,21.3,18.5,29.92,East,90,0.0,0.0,89,0.00,,,0.00,WUHU216HW,2013-02-25 12:34:00,
2013-02-25 06:39:00,21.5,18.7,29.93,East,90,0.0,0.0,89,0.00,,,0.00,WUHU216HW,2013-02-25 12:39:00,
2013-02-25 06:44:00,21.5,18.7,29.93,East,90,0.0,0.0,89,0.00,,,0.00,WUHU216HW,2013-02-25 12:44:00,
2013-02-25 06:49:00,21.5,18.7,29.93,East,90,0.0,0.0,89,0.00,,,0.00,WUHU216HW,2013-02-25 12:49:00,
2013-02-25 06:54:00,21.7,18.9,29.92,East,90,0.0,0.0,89,0.00,,,0.00,WUHU216HW,2013-02-25 12:54:00,
2013-02-25 06:59:00,21.9,19.4,29.92,East,90,0.0,0.0,90,0.00,,,0.00,WUHU216HW,2013-02-25 12:59:00,
2013-02-25 07:04:00,22.1,19.4,29.92,East,90,0.0,0.0,90,0.00,,,0.00,WUHU216HW,2013-02-25 13:04:00,
2013-02-25 07:09:00,22.2,19.7,29.92,East,90,0.0,0.0,90,0.00,,,0.00,WUHU216HW,2013-02-25 13:09:00,
2013-02-25 07:15:00,22.6,20.1,29.91,East,90,0.0,0.0,90,0.00,,,0.00,WUHU216HW,2013-02-25 13:15:00,
2013-02-25 07:20:00,22.8,20.3,29.91,East,90,0.0,0.0,90,0.00,,,0.00,WUHU216HW,2013-02-25 13:20:00,
2013-02-25 07:25:00,23.1,20.4,29.92,East,90,0.0,0.0,90,0.00,,,0.00,WUHU216HW,2013-02-25 13:25:00,
2013-02-25 07:30:00,23.3,20.8,29.92,East,90,0.0,0.0,90,0.00,,,0.00,WUHU216HW,2013-02-25 13:30:00,
2013-02-25 07:35:00,23.7,21.2,29.92,East,90,0.0,0.0,90,0.00,,,0.00,WUHU216HW,2013-02-25 13:35:00,
2013-02-25 07:40:00,24.0,21.5,29.92,East,90,0.0,0.0,90,0.00,,,0.00,WUHU216HW,2013-02-25 13:40:00,
2013-02-25 07:45:00,24.4,21.9,29.93,East,90,0.0,0.0,90,0.00,,,0.00,WUHU216HW,2013-02-25 13:45:00,
2013-02-25 07:50:00,24.6,22.1,29.93,East,90,0.0,0.0,90,0.00,,,0.00,WUHU216HW,2013-02-25 13:50:00,
2013-02-25 07:56:00,24.6,21.8,29.93,East,90,0.0,0.0,89,0.00,,,0.00,WUHU216HW,2013-02-25 13:56:00,
2013-02-25 08:01:00,24.6,21.8,29.93,East,90,0.0,0.0,89,0.00,,,0.00,WUHU216HW,2013-02-25 14:01:00,
2013-02-25 08:06:00,24.6,21.8,29.93,East,90,0.0,0.0,89,0.00,,,0.00,WUHU216HW,2013-02-25 14:06:00,
2013-02-25 08:11:00,24.6,21.8,29.93,East,90,0.0,0.0,89,0.00,,,0.00,WUHU216HW,2013-02-25 14:11:00,
2013-02-25 08:16:00,25.1,22.3,29.93,East,90,0.0,0.0,89,0.00,,,0.00,WUHU216HW,2013-02-25 14:16:00,
2013-02-25 08:21:00,25.5,22.7,29.92,East,90,0.0,0.0,89,0.00,,,0.00,WUHU216HW,2013-02-25 14:21:00,
2013-02-25 08:26:00,25.8,23.0,29.93,East,90,0.0,0.0,89,0.00,,,0.00,WUHU216HW,2013-02-25 14:26:00,
2013-02-25 08:31:00,26.7,23.9,29.93,East,90,0.0,0.0,89,0.00,,,0.00,WUHU216HW,2013-02-25 14:31:00,
2013-02-25 08:36:00,27.8,25.0,29.93,East,90,0.0,0.0,89,0.00,,,0.00,WUHU216HW,2013-02-25 14:36:00,
2013-02-25 08:41:00,29.1,26.0,29.93,East,90,0.0,0.0,88,0.00,,,0.00,WUHU216HW,2013-02-25 14:41:00,
2013-02-25 08:46:00,30.2,26.8,29.93,East,90,0.0,0.0,87,0.00,,,0.00,WUHU216HW,2013-02-25 14:46:00,
2013-02-25 08:51:00,31.2,27.6,29.93,East,90,0.0,0.0,86,0.00,,,0.00,WUHU216HW,2013-02-25 14:51:00,
2013-02-25 08:57:00,32.3,28.3,29.93,East,90,0.0,0.0,85,0.00,,,0.00,WUHU216HW,2013-02-25 14:57:00,
2013-02-25 09:02:00,33.0,28.4,29.93,East,90,0.0,0.0,83,0.00,,,0.00,WUHU216HW,2013-02-25 15:02:00,
2013-02-25 09:07:00,33.8,28.7,29.93,SE,135,0.0,0.0,82,0.00,,,0.00,WUHU216HW,2013-02-25 15:07:00,
2013-02-25 09:12:00,34.3,28.7,29.93,SE,135,0.0,0.0,80,0.00,,,0.00,WUHU216HW,2013-02-25 15:12:00,
2013-02-25 09:17:00,34.8,28.9,29.93,SSE,158,0.0,0.0,79,0.00,,,0.00,WUHU216HW,2013-02-25 15:17:00,
2013-02-25 09:22:00,35.4,28.8,29.93,SSW,203,2.4,2.4,77,0.00,,,0.00,WUHU216HW,2013-02-25 15:22:00,
2013-02-25 09:27:00,35.7,28.9,29.93,SSW,203,0.0,2.4,76,0.00,,,0.00,WUHU216HW,2013-02-25 15:27:00,
2013-02-25 09:32:00,35.9,28.4,29.93,SE,135,0.0,0.0,74,0.00,,,0.00,WUHU216HW,2013-02-25 15:32:00,
2013-02-25 09:37:00,35.9,27.7,29.93,SSW,203,0.0,0.0,72,0.00,,,0.00,WUHU216HW,2013-02-25 15:37:00,
2013-02-25 09:42:00,36.5,28.1,29.93,South,180,0.0,3.3,72,0.00,,,0.00,WUHU216HW,2013-02-25 15:42:00,
2013-02-25 09:47:00,37.2,28.4,29.93,SE,135,0.0,3.3,70,0.00,,,0.00,WUHU216HW,2013-02-25 15:47:00,
2013-02-25 09:52:00,37.2,28.0,29.93,SE,135,0.0,0.0,69,0.00,,,0.00,WUHU216HW,2013-02-25 15:52:00,
2013-02-25 09:57:00,37.2,27.6,29.93,SE,135,0.0,0.0,68,0.00,,,0.00,WUHU216HW,2013-02-25 15:57:00,
2013-02-25 10:02:00,37.9,28.3,29.93,SSE,158,0.0,0.0,68,0.00,,,0.00,WUHU216HW,2013-02-25 16:02:00,
2013-02-25 10:08:00,39.0,28.9,29.93,SSE,158,0.0,0.0,67,0.00,,,0.00,WUHU216HW,2013-02-25 16:08:00,
2013-02-25 10:13:00,39.5,28.6,29.93,SSE,158,3.1,3.1,65,0.00,,,0.00,WUHU216HW,2013-02-25 16:13:00,
2013-02-25 10:18:00,39.3,28.1,29.93,SSE,158,0.6,3.1,64,0.00,,,0.00,WUHU216HW,2013-02-25 16:18:00,
2013-02-25 10:23:00,39.5,28.2,29.93,SSE,158,0.0,2.0,64,0.00,,,0.00,WUHU216HW,2013-02-25 16:23:00,
2013-02-25 10:28:00,39.9,28.6,29.93,SSW,203,0.0,0.0,64,0.00,,,0.00,WUHU216HW,2013-02-25 16:28:00,
2013-02-25 10:33:00,40.8,29.1,29.93,SW,225,0.0,0.0,63,0.00,,,0.00,WUHU216HW,2013-02-25 16:33:00,
2013-02-25 10:38:00,41.7,29.6,29.92,SW,225,0.0,0.0,62,0.00,,,0.00,WUHU216HW,2013-02-25 16:38:00,
2013-02-25 10:43:00,41.9,29.4,29.92,SW,225,0.0,0.0,61,0.00,,,0.00,WUHU216HW,2013-02-25 16:43:00,
2013-02-25 10:48:00,42.6,29.6,29.92,SW,225,0.0,0.0,60,0.00,,,0.00,WUHU216HW,2013-02-25 16:48:00,
2013-02-25 10:53:00,43.3,29.9,29.91,SW,225,0.0,0.0,59,0.00,,,0.00,WUHU216HW,2013-02-25 16:53:00,
2013-02-25 10:58:00,43.7,29.8,29.92,SW,225,0.0,0.0,58,0.00,,,0.00,WUHU216HW,2013-02-25 16:58:00,
2013-02-25 11:03:00,44.2,29.9,29.92,SW,225,0.0,0.0,57,0.00,,,0.00,WUHU216HW,2013-02-25 17:03:00,
2013-02-25 11:08:00,44.4,30.2,29.92,SW,225,0.0,0.0,57,0.00,,,0.00,WUHU216HW,2013-02-25 17:08:00,
2013-02-25 11:13:00,44.9,30.1,29.92,SW,225,0.0,0.0,56,0.00,,,0.00,WUHU216HW,2013-02-25 17:13:00,
2013-02-25 11:18:00,44.9,29.2,29.93,WSW,248,0.0,0.0,54,0.00,,,0.00,WUHU216HW,2013-02-25 17:18:00,
2013-02-25 11:23:00,44.0,28.4,29.93,WSW,248,0.0,0.0,54,0.00,,,0.00,WUHU216HW,2013-02-25 17:23:00,
2013-02-25 11:28:00,43.5,27.9,29.92,WSW,248,0.0,0.0,54,0.00,,,0.00,WUHU216HW,2013-02-25 17:28:00,
2013-02-25 11:33:00,43.3,27.3,29.93,WSW,248,0.0,0.0,53,0.00,,,0.00,WUHU216HW,2013-02-25 17:33:00,
2013-02-25 11:38:00,43.5,27.9,29.92,WSW,248,0.0,0.0,54,0.00,,,0.00,WUHU216HW,2013-02-25 17:38:00,
2013-02-25 11:43:00,44.4,28.7,29.93,SSW,203,0.0,0.0,54,0.00,,,0.00,WUHU216HW,2013-02-25 17:43:00,
2013-02-25 11:48:00,44.9,29.2,29.93,SSW,203,0.0,0.0,54,0.00,,,0.00,WUHU216HW,2013-02-25 17:48:00,
2013-02-25 11:53:00,45.5,29.3,29.93,SSW,203,0.0,0.0,53,0.00,,,0.00,WUHU216HW,2013-02-25 17:53:00,
2013-02-25 11:58:00,46.2,29.4,29.93,SSW,203,0.0,0.0,52,0.00,,,0.00,WUHU216HW,2013-02-25 17:58:00,
2013-02-25 12:04:00,46.7,29.5,29.92,South,180,0.0,2.2,51,0.00,,,0.00,WUHU216HW,2013-02-25 18:04:00,
2013-02-25 12:09:00,47.1,29.4,29.92,SSE,158,0.0,2.9,50,0.00,,,0.00,WUHU216HW,2013-02-25 18:09:00,
2013-02-25 12:14:00,47.1,28.8,29.92,South,180,2.4,3.8,49,0.00,,,0.00,WUHU216HW,2013-02-25 18:14:00,
2013-02-25 12:18:00,47.3,29.0,29.92,SW,225,0.0,3.8,49,0.00,,,0.00,WUHU216HW,2013-02-25 18:18:00,
2013-02-25 12:23:00,47.8,29.5,29.91,SW,225,1.5,1.5,49,0.00,,,0.00,WUHU216HW,2013-02-25 18:23:00,
2013-02-25 12:29:00,48.9,30.0,29.91,South,180,5.1,5.1,48,0.00,,,0.00,WUHU216HW,2013-02-25 18:29:00,
2013-02-25 12:34:00,48.9,29.4,29.92,SSW,203,7.6,7.6,47,0.00,,,0.00,WUHU216HW,2013-02-25 18:34:00,
2013-02-25 12:39:00,48.3,28.9,29.91,SSE,158,1.1,7.8,47,0.00,,,0.00,WUHU216HW,2013-02-25 18:39:00,
2013-02-25 12:44:00,48.0,29.1,29.91,SSW,203,0.0,7.8,48,0.00,,,0.00,WUHU216HW,2013-02-25 18:44:00,
2013-02-25 12:49:00,48.0,28.5,29.91,SSE,158,0.0,0.0,47,0.00,,,0.00,WUHU216HW,2013-02-25 18:49:00,
2013-02-25 12:54:00,47.8,28.4,29.91,South,180,4.7,6.7,47,0.00,,,0.00,WUHU216HW,2013-02-25 18:54:00,
2013-02-25 12:59:00,47.1,28.3,29.90,SSW,203,0.0,6.7,48,0.00,,,0.00,WUHU216HW,2013-02-25 18:59:00,
2013-02-25 13:04:00,46.9,28.1,29.90,SE,135,0.0,4.0,48,0.00,,,0.00,WUHU216HW,2013-02-25 19:04:00,
2013-02-25 13:09:00,46.4,27.6,29.90,SE,135,0.0,5.3,48,0.00,,,0.00,WUHU216HW,2013-02-25 19:09:00,
2013-02-25 13:14:00,46.0,27.3,29.90,SE,135,2.3,5.3,48,0.00,,,0.00,WUHU216HW,2013-02-25 19:14:00,
2013-02-25 13:19:00,45.1,27.0,29.90,SW,225,0.0,6.0,49,0.00,,,0.00,WUHU216HW,2013-02-25 19:19:00,
2013-02-25 13:24:00,45.6,28.1,29.90,SSW,203,0.6,6.0,50,0.00,,,0.00,WUHU216HW,2013-02-25 19:24:00,
2013-02-25 13:29:00,46.0,27.8,29.90,South,180,2.2,5.3,49,0.00,,,0.00,WUHU216HW,2013-02-25 19:29:00,
2013-02-25 13:34:00,46.2,28.0,29.90,South,180,5.3,5.5,49,0.00,,,0.00,WUHU216HW,2013-02-25 19:34:00,
2013-02-25 13:39:00,46.5,28.3,29.89,SSW,203,2.0,5.8,49,0.00,,,0.00,WUHU216HW,2013-02-25 19:39:00,
2013-02-25 13:44:00,46.9,28.7,29.88,SE,135,6.9,6.9,49,0.00,,,0.00,WUHU216HW,2013-02-25 19:44:00,
2013-02-25 13:49:00,46.5,27.8,29.88,SSE,163,3.6,6.9,48,0.00,,,0.00,WUHU216HW,2013-02-25 19:49:00,
2013-02-25 13:54:00,46.2,28.0,29.88,SSW,203,3.8,5.5,49,0.00,,,0.00,WUHU216HW,2013-02-25 19:54:00,
2013-02-25 13:59:00,46.2,28.0,29.88,SE,135,0.0,3.8,49,0.00,,,0.00,WUHU216HW,2013-02-25 19:59:00,
2013-02-25 14:04:00,45.6,27.5,29.88,SSE,158,2.9,2.9,49,0.00,,,0.00,WUHU216HW,2013-02-25 20:04:00,
2013-02-25 14:09:00,45.1,27.6,29.88,SSE,158,0.0,2.9,50,0.00,,,0.00,WUHU216HW,2013-02-25 20:09:00,
2013-02-25 14:14:00,44.9,27.4,29.88,SSE,158,0.0,2.2,50,0.00,,,0.00,WUHU216HW,2013-02-25 20:14:00,
2013-02-25 14:19:00,44.9,27.4,29.88,SE,135,0.0,2.2,50,0.00,,,0.00,WUHU216HW,2013-02-25 20:19:00,
2013-02-25 14:24:00,44.6,27.5,29.88,SE,135,0.0,1.3,51,0.00,,,0.00,WUHU216HW,2013-02-25 20:24:00,
2013-02-25 14:29:00,43.8,26.9,29.88,SE,135,0.0,0.0,51,0.00,,,0.00,WUHU216HW,2013-02-25 20:29:00,
2013-02-25 14:34:00,43.1,26.7,29.88,SE,135,0.4,0.4,52,0.00,,,0.00,WUHU216HW,2013-02-25 20:34:00,
2013-02-25 14:39:00,42.6,26.6,29.87,ESE,113,0.0,0.4,53,0.00,,,0.00,WUHU216HW,2013-02-25 20:39:00,
2013-02-25 14:44:00,42.4,26.4,29.88,SE,135,0.0,2.9,53,0.00,,,0.00,WUHU216HW,2013-02-25 20:44:00,
2013-02-25 14:49:00,42.0,26.5,29.88,ESE,113,0.0,2.9,54,0.00,,,0.00,WUHU216HW,2013-02-25 20:49:00,
2013-02-25 14:54:00,42.4,27.3,29.88,SSW,203,0.0,3.8,55,0.00,,,0.00,WUHU216HW,2013-02-25 20:54:00,
2013-02-25 14:59:00,42.6,27.5,29.88,SSE,158,0.0,3.8,55,0.00,,,0.00,WUHU216HW,2013-02-25 20:59:00,
2013-02-25 15:04:00,42.9,27.8,29.88,South,180,0.0,0.0,55,0.00,,,0.00,WUHU216HW,2013-02-25 21:04:00,
2013-02-25 15:09:00,43.3,28.1,29.88,SSW,203,0.0,0.0,55,0.00,,,0.00,WUHU216HW,2013-02-25 21:09:00,
2013-02-25 15:14:00,43.3,28.1,29.88,SSW,203,0.0,0.0,55,0.00,,,0.00,WUHU216HW,2013-02-25 21:14:00,
2013-02-25 15:19:00,43.3,27.7,29.88,SSE,158,0.0,0.0,54,0.00,,,0.00,WUHU216HW,2013-02-25 21:19:00,
2013-02-25 15:24:00,43.1,28.0,29.88,South,180,0.0,0.2,55,0.00,,,0.00,WUHU216HW,2013-02-25 21:24:00,
2013-02-25 15:29:00,42.9,27.8,29.88,South,180,0.0,0.2,55,0.00,,,0.00,WUHU216HW,2013-02-25 21:29:00,
2013-02-25 15:34:00,42.9,27.8,29.88,SSE,158,0.0,0.0,55,0.00,,,0.00,WUHU216HW,2013-02-25 21:34:00,
2013-02-25 15:39:00,42.4,27.3,29.88,South,180,0.0,0.0,55,0.00,,,0.00,WUHU216HW,2013-02-25 21:39:00,
2013-02-25 15:44:00,41.9,27.4,29.88,South,180,1.3,1.3,56,0.00,,,0.00,WUHU216HW,2013-02-25 21:44:00,
2013-02-25 15:50:00,41.5,27.0,29.88,South,180,0.0,1.3,56,0.00,,,0.00,WUHU216HW,2013-02-25 21:50:00,
2013-02-25 15:55:00,41.3,27.0,29.87,South,180,0.0,0.0,57,0.00,,,0.00,WUHU216HW,2013-02-25 21:55:00,
2013-02-25 16:00:00,41.0,26.8,29.88,South,180,0.0,0.0,57,0.00,,,0.00,WUHU216HW,2013-02-25 22:00:00,
2013-02-25 16:05:00,40.8,26.6,29.88,South,180,0.0,0.0,57,0.00,,,0.00,WUHU216HW,2013-02-25 22:05:00,
2013-02-25 16:10:00,40.2,26.6,29.88,South,180,0.0,0.0,58,0.00,,,0.00,WUHU216HW,2013-02-25 22:10:00,
2013-02-25 16:15:00,39.7,26.0,29.88,South,180,0.0,0.0,58,0.00,,,0.00,WUHU216HW,2013-02-25 22:15:00,
2013-02-25 16:20:00,39.0,25.8,29.88,South,180,0.0,0.0,59,0.00,,,0.00,WUHU216HW,2013-02-25 22:20:00,
2013-02-25 16:25:00,38.8,25.6,29.88,South,180,0.0,0.0,59,0.00,,,0.00,WUHU216HW,2013-02-25 22:25:00,
2013-02-25 16:30:00,38.4,25.7,29.88,South,180,0.0,0.0,60,0.00,,,0.00,WUHU216HW,2013-02-25 22:30:00,
2013-02-25 16:35:00,38.1,25.8,29.88,South,180,0.0,0.0,61,0.00,,,0.00,WUHU216HW,2013-02-25 22:35:00,
2013-02-25 16:40:00,37.5,25.3,29.88,South,180,0.0,0.0,61,0.00,,,0.00,WUHU216HW,2013-02-25 22:40:00,
2013-02-25 16:45:00,37.2,25.3,29.88,South,180,0.0,0.0,62,0.00,,,0.00,WUHU216HW,2013-02-25 22:45:00,
2013-02-25 16:50:00,36.6,24.8,29.88,South,180,0.0,0.0,62,0.00,,,0.00,WUHU216HW,2013-02-25 22:50:00,
2013-02-25 16:55:00,36.3,24.9,29.89,SSE,158,0.0,0.0,63,0.00,,,0.00,WUHU216HW,2013-02-25 22:55:00,
2013-02-25 17:00:00,35.7,24.7,29.89,ESE,113,0.0,0.0,64,0.00,,,0.00,WUHU216HW,2013-02-25 23:00:00,
2013-02-25 17:05:00,35.4,24.4,29.88,ESE,113,0.0,0.0,64,0.00,,,0.00,WUHU216HW,2013-02-25 23:05:00,
2013-02-25 17:10:00,35.0,24.4,29.88,ESE,113,0.0,0.0,65,0.00,,,0.00,WUHU216HW,2013-02-25 23:10:00,
2013-02-25 17:15:00,34.7,24.0,29.88,ESE,113,0.0,0.0,65,0.00,,,0.00,WUHU216HW,2013-02-25 23:15:00,
2013-02-25 17:20:00,34.3,24.0,29.88,ESE,113,0.0,0.0,66,0.00,,,0.00,WUHU216HW,2013-02-25 23:20:00,
2013-02-25 17:25:00,34.3,24.0,29.87,ESE,113,0.0,0.0,66,0.00,,,0.00,WUHU216HW,2013-02-25 23:25:00,
2013-02-25 17:30:00,33.8,23.9,29.87,ESE,113,0.0,0.0,67,0.00,,,0.00,WUHU216HW,2013-02-25 23:30:00,
2013-02-25 17:35:00,33.6,24.0,29.87,ESE,113,0.0,0.0,68,0.00,,,0.00,WUHU216HW,2013-02-25 23:35:00,
2013-02-25 17:40:00,33.0,23.6,29.86,ESE,113,0.0,0.0,68,0.00,,,0.00,WUHU216HW,2013-02-25 23:40:00,
2013-02-25 17:45:00,32.7,23.2,29.87,ESE,113,0.0,0.0,68,0.00,,,0.00,WUHU216HW,2013-02-25 23:45:00,
2013-02-25 17:50:00,32.5,23.1,29.87,ESE,113,0.0,0.0,68,0.00,,,0.00,WUHU216HW,2013-02-25 23:50:00,
2013-02-25 17:55:00,32.1,22.8,29.87,ESE,113,0.0,0.0,69,0.00,,,0.00,WUHU216HW,2013-02-25 23:55:00,
2013-02-25 18:00:00,32.1,23.1,29.87,ESE,113,0.0,0.0,69,0.00,,,0.00,WUHU216HW,2013-02-26 00:00:00,
2013-02-25 18:05:00,32.0,23.3,29.87,ESE,113,0.0,0.0,70,0.00,,,0.00,WUHU216HW,2013-02-26 00:05:00,
2013-02-25 18:11:00,31.8,23.1,29.87,ESE,113,0.0,0.0,70,0.00,,,0.00,WUHU216HW,2013-02-26 00:11:00,
2013-02-25 18:16:00,31.8,23.5,29.87,ESE,113,0.0,0.0,71,0.00,,,0.00,WUHU216HW,2013-02-26 00:16:00,
2013-02-25 18:21:00,31.8,23.8,29.87,ESE,113,0.0,0.0,71,0.00,,,0.00,WUHU216HW,2013-02-26 00:21:00,
2013-02-25 18:26:00,31.8,23.8,29.87,ESE,113,0.0,0.0,72,0.00,,,0.00,WUHU216HW,2013-02-26 00:26:00,
2013-02-25 18:31:00,31.8,23.8,29.87,ESE,113,0.0,0.0,72,0.00,,,0.00,WUHU216HW,2013-02-26 00:31:00,
2013-02-25 18:36:00,31.8,24.1,29.86,ESE,113,0.0,0.0,73,0.00,,,0.00,WUHU216HW,2013-02-26 00:36:00,
2013-02-25 18:41:00,31.6,23.9,29.86,East,90,0.0,0.0,73,0.00,,,0.00,WUHU216HW,2013-02-26 00:41:00,
2013-02-25 18:46:00,31.2,23.6,29.86,East,90,0.0,0.0,73,0.00,,,0.00,WUHU216HW,2013-02-26 00:46:00,
2013-02-25 18:51:00,30.9,23.2,29.87,East,90,0.0,0.0,73,0.00,,,0.00,WUHU216HW,2013-02-26 00:51:00,
2013-02-25 18:56:00,30.7,23.0,29.87,East,90,0.0,0.0,73,0.00,,,0.00,WUHU216HW,2013-02-26 00:56:00,
2013-02-25 19:01:00,30.3,22.7,29.87,East,90,0.0,0.0,73,0.00,,,0.00,WUHU216HW,2013-02-26 01:01:00,
2013-02-25 19:06:00,30.0,22.3,29.87,East,90,0.0,0.0,73,0.00,,,0.00,WUHU216HW,2013-02-26 01:06:00,
2013-02-25 19:11:00,30.0,22.6,29.87,East,90,0.0,0.0,74,0.00,,,0.00,WUHU216HW,2013-02-26 01:11:00,
2013-02-25 19:16:00,29.8,22.5,29.86,East,90,0.0,0.0,74,0.00,,,0.00,WUHU216HW,2013-02-26 01:16:00,
2013-02-25 19:21:00,29.8,22.5,29.87,East,90,0.0,0.0,74,0.00,,,0.00,WUHU216HW,2013-02-26 01:21:00,
2013-02-25 19:26:00,29.8,22.5,29.87,East,90,0.0,0.0,74,0.00,,,0.00,WUHU216HW,2013-02-26 01:26:00,
2013-02-25 19:31:00,29.8,22.8,29.87,East,90,0.0,0.0,75,0.00,,,0.00,WUHU216HW,2013-02-26 01:31:00,
2013-02-25 19:36:00,30.0,23.0,29.87,East,90,0.0,0.0,75,0.00,,,0.00,WUHU216HW,2013-02-26 01:36:00,
2013-02-25 19:41:00,30.0,23.0,29.87,East,90,0.0,0.0,75,0.00,,,0.00,WUHU216HW,2013-02-26 01:41:00,
2013-02-25 19:46:00,30.2,23.1,29.86,East,90,0.0,0.0,75,0.00,,,0.00,WUHU216HW,2013-02-26 01:46:00,
2013-02-25 19:51:00,30.2,23.1,29.86,East,90,0.0,0.0,75,0.00,,,0.00,WUHU216HW,2013-02-26 01:51:00,
2013-02-25 19:56:00,30.0,23.0,29.86,East,90,0.0,0.0,75,0.00,,,0.00,WUHU216HW,2013-02-26 01:56:00,
2013-02-25 20:01:00,29.8,23.1,29.87,East,90,0.0,0.0,76,0.00,,,0.00,WUHU216HW,2013-02-26 02:01:00,
2013-02-25 20:06:00,29.8,23.1,29.87,East,90,0.0,0.0,76,0.00,,,0.00,WUHU216HW,2013-02-26 02:06:00,
2013-02-25 20:12:00,29.6,22.9,29.86,NE,45,0.0,0.0,76,0.00,,,0.00,WUHU216HW,2013-02-26 02:12:00,
2013-02-25 20:17:00,29.4,22.8,29.86,ENE,68,0.0,0.0,76,0.00,,,0.00,WUHU216HW,2013-02-26 02:17:00,
2013-02-25 20:22:00,29.4,23.1,29.85,NE,45,0.0,0.0,77,0.00,,,0.00,WUHU216HW,2013-02-26 02:22:00,
2013-02-25 20:27:00,29.4,22.9,29.85,NE,45,0.0,0.0,77,0.00,,,0.00,WUHU216HW,2013-02-26 02:27:00,
2013-02-25 20:32:00,29.3,22.9,29.85,NE,45,0.0,0.0,77,0.00,,,0.00,WUHU216HW,2013-02-26 02:32:00,
2013-02-25 20:37:00,29.1,22.7,29.85,NE,45,0.0,0.0,77,0.00,,,0.00,WUHU216HW,2013-02-26 02:37:00,
2013-02-25 20:42:00,28.9,22.6,29.84,NE,45,0.0,0.0,77,0.00,,,0.00,WUHU216HW,2013-02-26 02:42:00,
2013-02-25 20:47:00,28.7,22.4,29.85,NE,45,0.0,0.0,77,0.00,,,0.00,WUHU216HW,2013-02-26 02:47:00,
2013-02-25 20:52:00,28.5,22.2,29.84,NE,45,0.0,0.0,77,0.00,,,0.00,WUHU216HW,2013-02-26 02:52:00,
2013-02-25 20:57:00,28.5,22.5,29.83,NE,45,0.0,0.0,78,0.00,,,0.00,WUHU216HW,2013-02-26 02:57:00,
2013-02-25 21:02:00,28.2,22.2,29.83,NE,45,0.0,0.0,78,0.00,,,0.00,WUHU216HW,2013-02-26 03:02:00,
2013-02-25 21:07:00,28.2,22.2,29.83,NE,45,0.0,0.0,78,0.00,,,0.00,WUHU216HW,2013-02-26 03:07:00,
2013-02-25 21:12:00,28.0,22.2,29.83,NE,45,0.4,0.8,78,0.00,,,0.00,WUHU216HW,2013-02-26 03:12:00,
2013-02-25 21:17:00,28.0,22.0,29.83,NE,45,1.3,1.3,78,0.00,,,0.00,WUHU216HW,2013-02-26 03:17:00,
2013-02-25 21:22:00,28.0,22.0,29.83,NE,45,0.0,1.3,78,0.00,,,0.00,WUHU216HW,2013-02-26 03:22:00,
2013-02-25 21:27:00,27.6,21.9,29.83,NE,45,0.0,0.0,79,0.00,,,0.00,WUHU216HW,2013-02-26 03:27:00,
2013-02-25 21:33:00,27.6,21.9,29.84,NE,45,0.0,0.8,79,0.00,,,0.00,WUHU216HW,2013-02-26 03:33:00,
2013-02-25 21:38:00,27.5,21.7,29.83,NE,45,0.0,0.8,79,0.00,,,0.00,WUHU216HW,2013-02-26 03:38:00,
2013-02-25 21:43:00,27.3,21.6,29.84,NE,45,0.0,0.0,79,0.00,,,0.00,WUHU216HW,2013-02-26 03:43:00,
2013-02-25 21:48:00,27.1,21.4,29.83,NE,45,0.0,0.0,79,0.00,,,0.00,WUHU216HW,2013-02-26 03:48:00,
2013-02-25 21:53:00,26.9,21.2,29.84,NE,45,0.0,0.0,79,0.00,,,0.00,WUHU216HW,2013-02-26 03:53:00,
2013-02-25 21:58:00,26.9,21.2,29.85,NE,45,0.0,0.0,79,0.00,,,0.00,WUHU216HW,2013-02-26 03:58:00,
2013-02-25 22:03:00,26.7,21.0,29.85,NE,45,0.0,0.0,79,0.00,,,0.00,WUHU216HW,2013-02-26 04:03:00,
2013-02-25 22:08:00,26.4,20.7,29.85,NE,45,1.1,1.1,79,0.00,,,0.00,WUHU216HW,2013-02-26 04:08:00,
2013-02-25 22:13:00,26.6,20.8,29.85,NE,45,0.4,1.1,79,0.00,,,0.00,WUHU216HW,2013-02-26 04:13:00,
2013-02-25 22:18:00,26.6,21.2,29.85,NE,45,0.0,0.8,80,0.00,,,0.00,WUHU216HW,2013-02-26 04:18:00,
2013-02-25 22:23:00,26.6,21.2,29.86,NE,45,0.0,0.8,80,0.00,,,0.00,WUHU216HW,2013-02-26 04:23:00,
2013-02-25 22:28:00,26.4,21.0,29.85,NE,45,0.0,0.0,80,0.00,,,0.00,WUHU216HW,2013-02-26 04:28:00,
2013-02-25 22:33:00,26.4,21.0,29.85,NE,45,0.0,0.0,80,0.00,,,0.00,WUHU216HW,2013-02-26 04:33:00,
2013-02-25 22:39:00,26.4,21.0,29.86,NE,45,0.0,0.0,80,0.00,,,0.00,WUHU216HW,2013-02-26 04:39:00,
2013-02-25 22:44:00,26.6,21.4,29.86,NE,45,0.0,2.2,81,0.00,,,0.00,WUHU216HW,2013-02-26 04:44:00,
2013-02-25 22:49:00,26.6,21.4,29.86,NE,45,0.0,2.4,81,0.00,,,0.00,WUHU216HW,2013-02-26 04:49:00,
2013-02-25 22:54:00,26.4,21.3,29.86,NE,45,0.0,2.4,81,0.00,,,0.00,WUHU216HW,2013-02-26 04:54:00,
2013-02-25 22:59:00,26.7,21.9,29.86,NE,45,0.0,0.6,82,0.00,,,0.00,WUHU216HW,2013-02-26 04:59:00,
2013-02-25 23:00:00,26.6,21.7,29.86,NE,45,0.0,0.6,82,0.00,,,0.00,WUHU216HW,2013-02-26 05:00:00,
2013-02-25 23:05:00,26.6,21.7,29.86,NE,45,0.0,3.5,82,0.00,,,0.00,WUHU216HW,2013-02-26 05:05:00,
2013-02-25 23:10:00,26.4,21.7,29.86,NE,45,0.0,0.8,82,0.00,,,0.00,WUHU216HW,2013-02-26 05:10:00,
2013-02-25 23:15:00,26.4,21.5,29.86,NE,45,0.0,0.0,82,0.00,,,0.00,WUHU216HW,2013-02-26 05:15:00,
2013-02-25 23:20:00,26.4,21.5,29.86,NE,45,0.0,0.0,82,0.00,,,0.00,WUHU216HW,2013-02-26 05:20:00,
2013-02-25 23:25:00,26.4,21.8,29.86,NE,45,0.0,0.0,83,0.00,,,0.00,WUHU216HW,2013-02-26 05:25:00,
2013-02-25 23:30:00,26.2,21.7,29.85,NNE,23,1.5,1.5,83,0.00,,,0.00,WUHU216HW,2013-02-26 05:30:00,
2013-02-25 23:36:00,26.0,21.5,29.85,NE,45,2.2,2.2,83,0.00,,,0.00,WUHU216HW,2013-02-26 05:36:00,
2013-02-25 23:41:00,26.2,21.7,29.85,NE,45,2.4,2.4,83,0.00,,,0.00,WUHU216HW,2013-02-26 05:41:00,
2013-02-25 23:46:00,26.2,22.0,29.85,NE,45,0.0,2.4,84,0.00,,,0.00,WUHU216HW,2013-02-26 05:46:00,
2013-02-25 23:51:00,26.2,22.0,29.86,NE,45,0.0,0.0,84,0.00,,,0.00,WUHU216HW,2013-02-26 05:51:00,
2013-02-25 23:56:00,26.2,22.0,29.85,NE,45,0.0,2.2,84,0.00,,,0.00,WUHU216HW,2013-02-26 05:56:00,